Regional Weather Roundup
Issued by NWS

Home | Current Version | Previous Version | Graphics & Text | Print | Product List | Glossary On
Versions: 1 2 3 4 5 6 7 8 9 10 11 12 13 14 15 16 17 18 19 20 21 22 23 24 25 26 27 28 29 30 31 32 33 34 35 36 37 38 39 40 41 42 43 44 45 46 47 48 49 50
000
ASUS43 KFSD 240802
RWRSD

WEATHER ROUNDUP FOR SOUTH DAKOTA
NATIONAL WEATHER SERVICE SIOUX FALLS SD
300 AM CDT WED MAY 24 2017

NOTE: "FAIR" INDICATES FEW OR NO CLOUDS BELOW 12,000 FEET WITH NO
SIGNIFICANT WEATHER AND/OR OBSTRUCTIONS TO VISIBILITY.


SDZ001>005-009-010-012>017-240900-
NORTHWEST AND NORTH CENTRAL SOUTH DAKOTA

CITY           SKY/WX    TMP DP  RH WIND       PRES   REMARKS
BUFFALO          N/A     43  36  76 SE13      29.79F
FAITH            N/A     40  37  89 S12       29.89F
MOBRIDGE       CLOUDY    39  35  86 NE5       29.87F
$$

SDZ012>016-024>037-041>051-057-063-072>074-240900-
SOUTHWEST AND SOUTH CENTRAL SOUTH DAKOTA

CITY           SKY/WX    TMP DP  RH WIND       PRES   REMARKS
RAPID CTY ARPT CLEAR     39  33  79 SE6       29.91F
PIERRE         CLOUDY    37  34  89 W6        29.90F
CUSTER         CLOUDY    34  28  79 CALM      29.93F
ELLSWORTH AFB  PTCLDY    44  36  74 S6        29.89F
PHILIP         CLOUDY    32  31  96 W6        29.92F WCI  26
PINE RIDGE     CLEAR     35  34  96 NE5       29.93F
SPEARFISH      FAIR      41  34  75 SE6       29.86F
WINNER         FAIR      40  37  89 W6        29.91F
$$

SDZ004>011-016>023-039-040-240900-
NORTHEAST SOUTH DAKOTA

CITY           SKY/WX    TMP DP  RH WIND       PRES   REMARKS
ABERDEEN       PTCLDY    40  36  86 N5        29.89F
WATERTOWN      CLEAR     37  36  96 N5        29.85F
BROOKINGS      CLEAR     43  42  97 N3        29.84F
SISSETON         N/A     43  42  97 NW9       29.87R
$$

SDZ017-020-022-023-036>040-048>070-240900-
SOUTHEAST SOUTH DAKOTA

CITY           SKY/WX    TMP DP  RH WIND       PRES   REMARKS
SIOUX FALLS    CLEAR     45  44  97 N7        29.83F
HURON          CLEAR     37  37 100 NW5       29.88F
MITCHELL       CLEAR     43  41  93 NW9       29.88F
YANKTON        CLEAR     44  42  93 NW9       29.85F
$$

ABBREVIATIONS USED IN REMARKS
   TC - TEMPERATURE IN CELSIUS
  WCI - WIND CHILL INDEX
   HX - HEAT INDEX
  VSB - VISIBILITY





USA.gov is the U.S. government's official web portal to all federal, state and local government web resources and services.